Starlink 3096

operational
NORAD ID: 49131 Int'l Des: 2021-082 Owner: SPXS Country: US Constellation: starlink
LEOCIRCULAR

关于 Starlink 3096

正在加载描述...

实时位置

正在加载3D地球...

即将过境

高度历史

Altitude vs Time

uPlot chart will show altitude changes over time

两行轨道根数

1 49131U 21082B 25350.30942843 .00001856 00000-0 16325-3 0 9999
2 49131 70.0012 104.6768 0003033 270.6255 89.4557 14.98335410234474
Epoch: Dec 16, 2025 • Age: 20 hours

当前状态

高度 582.7 km
速度 7.57 km/s
星下点 -33.07°S, 156°E
发射日期 Sep 14, 2021
运行时间 4.2 years
类型 internet

技术详情

分类 Payload
质量 297.00 kg
干质量 275.00 kg
总质量 297.00 kg
长度 0.20 m
直径 2.80 m
跨度 9.00 m
形状 Box + pan
制造商 SPXS
平台类型 Starlink
阶段状态 In Orbit
所有者/国家 SPXS/US

大型星座

Loading constellations...